Location: Pace/Milton
(30.6162°N, 87.1503°W)
Time: 12:55:41
(UTC-06:00)

N. Korean satellite - Pass Details

Date: 29 November 2021
Orbit: 447 x 491 km, 97.3° (Epoch: 21 January)

Event Time Altitude Azimuth Distance (km) Brightness Sun altitude
Rises 05:59:29 0° 342° (NNW) 2,457 9.8 -6.2°
Reaches altitude 10° 06:03:27 10° 295° (WNW) 1,573 8.5 -5.5°
Maximum altitude 06:03:43 10° 290° (WNW) 1,567 8.5 -5.4°
Drops below altitude 10° 06:03:59 10° 285° (WNW) 1,571 8.5 -5.3°
Sets 06:07:56 0° 238° (WSW) 2,434 9.8 -4.6°
